星链-31551 (STARLINK-31551 )

导读 | 星芒AI

STARLINK-31551 是 SpaceX Starlink 项目中的一颗低轨通信卫星,属于第二代 Starlink 卫星(Gen2)。该卫星于 2024 年 5 月发射,部署在约 550 公里的轨道高度,旨在为全球提供高速、低延迟的互联网服务。它采用先进推进系统和激光通信技术,提升网络效率与覆盖能力。作为 Starlink 网络的重要组成部分,STARLINK-31551 支持偏远地区联网,推动全球数字包容性发展。

基本信息
目录编号:
59191
目录名称:
STARLINK-31551
国际标识:
2024-045P
轨道中心:
EARTH
卫星名称:
星链-31551
卫星全名:
星链-31551 (STARLINK-31551 )
卫星状态:
在轨 (已飞行601 天)
发射日期:
2024-03-10 UTC
国别 :
美国 (US)
星等 :
--
轨道信息
数据来源 国际轨道数据
星历时间: 2025-11-01T03:13:52+0800
1天前
查看轨道信息
半长轴: 6861.161km
偏心率: 0.0001178
轨道倾角: 43.001°
近地点辐角 269.321°
升交点赤经 96.657°
平近点角 90.751°
近地点: 482.217km
远地点: 483.835km
周期: 94.266分钟
每日圈数: 15.275886
详细信息
固有亮度:
5
最大亮度:
0.3
卫星平台:
Starlink v2.0 mini
覆盖范围:
全球
运营商:
太空探索技术公司
运营商所在国:
美国
制造商(研发单位):
太空探索技术公司
制造商所在国:
美国
使用方式:
暂无
卫星简介
星链(Starlink)计划是由太空探索技术公司(SpaceX)提出的一个巨型低轨卫星互联网星座项目,计划在2019年至2024年间在太空搭建由约1.2万颗卫星组成的“星链”网络,其中1584颗将部署在地球上空550千米处的近地轨道,并从2020年开始工作。该卫星仍在工作。
2D轨道图
3D轨道图
轨道高度分析图
轨道倾角分析图
轨道综合分析图
查看轨道综合分析图